Вернуться в каталог

COSMOS 2499 DEB

АктивенPO
NORAD 55719·DEBRIS·🇷🇺 Russia

Запущен May 23, 2014 с Plesetsk Cosmodrome

Loading…

Ближайшие Пролёты (ближайшие 24 часа)

TLE

УстаревающийSource: Space-Track

Эпоха: Sep 7, 2026, 12:40 UTC

1 55719U 14028AF  26250.52826265  .00004389  00000-0  14171-1 0  9992
2 55719  82.3774 182.1660 0218823 108.6540 253.8463 12.94187337172233

Отслеживайте COSMOS 2499 DEB в реальном времени с AllMySat

Download on the App Store